This demonstration page uses our WeatherBlox Daily Observations layout. Learn more.

Left ArrowRight Arrow

41.12389, -100.76542

Hourly Observations for February 6, 2017

Temp ( °F °C ) Dew Point ( °F °C ) Humidity (%) Winds ( mph kmh ) Pressure ( in mb ) Visibility ( mi km ) Precip ( " mm )
12:53 am 00:53 Clear 34 1.1 25 -3.9 70 70 ENE 7 11 29.85 1011 10 16 0.00 0.00
1:53 am 01:53 Clear 33 0.6 25 -3.9 72 72 Calm 29.81 1010 10 16 0.00 0.00
2:53 am 02:53 Clear 36 2.2 26 -3.3 67 67 SSW 5 7 29.78 1008 10 16 0.00 0.00
3:53 am 03:53 Clear 35 1.7 26 -3.3 70 70 NW 5 7 29.75 1008 10 16 0.00 0.00
4:53 am 04:53 Clear 32 0 26 -3.3 79 79 S 3 6 29.75 1007 10 16 0.00 0.00
5:53 am 05:53 Clear 31 -0.6 26 -3.3 82 82 Calm 29.74 1007 10 16 0.00 0.00
6:53 am 06:53 Clear 31 -0.6 26 -3.3 82 82 Calm 29.72 1006 10 16 0.00 0.00
7:53 am 07:53 Sunny 31 -0.6 27 -2.8 85 85 Calm 29.70 1006 10 16 0.00 0.00
8:53 am 08:53 Sunny 33 0.6 28 -2.2 82 82 E 3 6 29.70 1006 10 16 0.00 0.00
9:53 am 09:53 Sunny 34 1.1 29 -1.7 82 82 ESE 3 6 29.67 1005 10 16 0.00 0.00
10:53 am 10:53 Sunny 36 2.2 29 -1.7 76 76 ESE 7 11 29.64 1004 10 16 0.00 0.00
11:53 am 11:53 Sunny 41 5 30 -1.1 65 65 ESE 5 7 29.62 1003 10 16 0.00 0.00
12:53 pm 12:53 Sunny 44 6.7 30 -1.1 58 58 WNW 5 7 29.59 1002 10 16 0.00 0.00
1:53 pm 13:53 Sunny 46 7.8 31 -0.6 56 56 Calm 29.54 1001 10 16 0.00 0.00
2:53 pm 14:53 Mostly Sunny 47 8.3 32 0 56 56 WNW 6 9 29.52 1000 10 16 0.00 0.00
3:53 pm 15:53 Sunny 50 10 33 0.6 52 52 SW 3 6 29.51 999 10 16 0.00 0.00
4:53 pm 16:53 Sunny 47 8.3 32 0 56 56 Calm 29.53 1000 10 16 0.00 0.00
5:53 pm 17:53 Sunny 41 5 31 -0.6 67 67 Calm 29.56 1001 10 16 0.00 0.00
6:53 pm 18:53 Clear 34 1.1 27 -2.8 76 76 NW 3 6 29.58 1002 10 16 0.00 0.00
7:53 pm 19:53 Clear 31 -0.6 27 -2.8 85 85 NNW 3 6 29.60 1002 10 16 0.00 0.00
8:53 pm 20:53 Clear 28 -2.2 25 -3.9 88 88 Calm 29.60 1002 10 16 0.00 0.00
9:53 pm 21:53 Clear 25 -3.9 23 -5 92 92 NW 5 7 29.61 1003 10 16 0.00 0.00
10:53 pm 22:53 Clear 26 -3.3 24 -4.4 92 92 WNW 3 6 29.61 1003 10 16 0.00 0.00
11:53 pm 23:53 Clear 28 -2.2 25 -3.9 88 88 W 5 7 29.60 1002 10 16 0.00 0.00

Powered by AerisWeather